Date String (YYYY-MM-DD hh:mm:ss) UTC,Instrument flags,absolute air pressure of the measurement (hPa),sample flow rate (lpm),inlet stack bypass flow (lpm),air temperature of the measurement (°C),ambient temperature measured by the external sensor (°C),aerosol sample conditioner tube jacket temperature (°C),OPC LED temperature (°C),internal box temperature (°C),relative humidity of the measurement (%),span deviation,mass concentration of particles derived from Lorenz-Mie calculation of OPC scattering (μg/m³),mass concentration of particles derived from Lorenz-Mie calculation of OPC scattering (μg/m³),mass concentration of particles derived from Lorenz-Mie calculation of OPC scattering (μg/m³)
DateTimeUTC,F1_M11,P_M11,Q1_M11,Q2_M11,T1_M11,T2_M11,T3_M11,T4_M11,T5_M11,U1_M11,ZSPAN_M11,X2_M11,X0_M11,X1_M11
2024-04-09 21:00:00,SystemResetWarning,0826.1,5.00,000.00,024.5,023.8,000.0,032.7,026.3,012.3,0000.0,0005.69,0015.17,0004.75
2024-04-09 21:01:00,SystemResetWarning,0826.0,5.00,000.00,024.5,023.9,000.0,032.8,026.3,012.3,0000.0,0005.68,0016.00,0004.72
2024-04-09 21:02:00,SystemResetWarning,0826.0,5.00,000.00,024.5,023.9,000.0,032.8,026.3,012.3,0000.0,0005.65,0015.59,0004.69
2024-04-09 21:03:00,SystemResetWarning,0826.0,4.99,000.00,024.5,023.9,000.0,032.8,026.4,012.3,0000.0,0005.68,0015.47,0004.69
2024-04-09 21:04:00,SystemResetWarning,0826.0,4.99,000.00,024.5,024.0,000.0,032.8,026.4,012.2,0000.0,0005.63,0015.03,0004.68
2024-04-09 21:05:00,SystemResetWarning,0825.9,5.00,000.00,024.6,024.0,000.0,032.8,026.4,012.4,0000.0,0005.65,0014.80,0004.71
2024-04-09 21:06:00,SystemResetWarning,0825.9,5.01,000.00,024.6,024.0,000.0,032.8,026.4,012.9,0000.0,0005.62,0014.44,0004.73
2024-04-09 21:07:00,SystemResetWarning,0825.9,5.01,000.00,024.6,024.0,000.0,032.8,026.5,013.0,0000.0,0005.55,0013.68,0004.72
2024-04-09 21:08:00,SystemResetWarning,0825.9,5.00,000.00,024.6,024.1,000.0,032.9,026.5,012.6,0000.0,0005.57,0011.82,0004.74
2024-04-09 21:09:00,SystemResetWarning,0825.9,5.00,000.00,024.6,024.1,000.0,032.9,026.5,012.8,0000.0,0005.55,0012.73,0004.76
2024-04-09 21:10:00,SystemResetWarning,0825.9,5.00,000.00,024.6,024.0,000.0,032.9,026.5,012.3,0000.0,0005.58,0013.38,0004.76
2024-04-09 21:11:00,SystemResetWarning,0825.9,5.00,000.00,024.7,024.1,000.0,032.9,026.5,012.4,0000.0,0005.60,0013.79,0004.76
2024-04-09 21:12:00,SystemResetWarning,0825.9,5.00,000.00,024.7,024.1,000.0,032.9,026.5,012.4,0000.0,0005.55,0012.81,0004.78
2024-04-09 21:13:00,SystemResetWarning,0825.9,5.00,000.00,024.7,024.1,000.0,032.9,026.5,012.3,0000.0,0005.56,0012.52,0004.80
2024-04-09 21:14:00,SystemResetWarning,0825.9,5.00,000.00,024.7,024.1,000.0,033.0,026.6,012.2,0000.0,0005.54,0012.59,0004.81
2024-04-09 21:15:00,SystemResetWarning,0825.9,5.00,000.00,024.7,024.1,000.0,033.0,026.6,012.1,0000.0,0005.58,0013.23,0004.85
2024-04-09 21:16:00,SystemResetWarning,0825.9,5.00,000.00,024.7,024.2,000.0,033.0,026.6,012.3,0000.0,0005.62,0013.74,0004.87
2024-04-09 21:17:00,SystemResetWarning,0826.0,5.00,000.00,024.8,024.2,000.0,033.0,026.6,012.2,0000.0,0005.67,0013.92,0004.89
2024-04-09 21:18:00,SystemResetWarning,0825.9,5.00,000.00,024.8,024.2,000.0,033.0,026.6,012.2,0000.0,0005.71,0013.46,0004.92
2024-04-09 21:19:00,SystemResetWarning,0825.9,5.00,000.00,024.8,024.2,000.0,033.0,026.6,012.2,0000.0,0005.79,0014.06,0004.97
2024-04-09 21:20:00,SystemResetWarning,0825.9,5.00,000.00,024.8,024.2,000.0,033.1,026.6,012.2,0000.0,0005.84,0013.51,0005.01
2024-04-09 21:21:00,SystemResetWarning,0825.9,5.00,000.00,024.8,024.2,000.0,033.1,026.6,012.2,0000.0,0005.84,0013.93,0005.05
2024-04-09 21:22:00,SystemResetWarning,0825.9,5.00,000.00,024.8,024.2,000.0,033.1,026.6,012.2,0000.0,0005.88,0013.87,0005.07
2024-04-09 21:23:00,SystemResetWarning,0825.9,4.99,000.00,024.8,024.2,000.0,033.1,026.6,012.4,0000.0,0005.96,0014.18,0005.10
2024-04-09 21:24:00,SystemResetWarning,0825.9,5.00,000.00,024.8,024.2,000.0,033.1,026.7,012.0,0000.0,0006.00,0014.74,0005.12
2024-04-09 21:25:00,SystemResetWarning,0825.8,5.00,000.00,024.9,024.3,000.0,033.1,026.7,012.0,0000.0,0006.03,0014.79,0005.14
2024-04-09 21:26:00,SystemResetWarning,0825.8,5.00,000.00,024.9,024.3,000.0,033.1,026.7,012.2,0000.0,0006.06,0014.62,0005.14
2024-04-09 21:27:00,SystemResetWarning,0825.8,5.00,000.00,024.9,024.3,000.0,033.2,026.7,012.1,0000.0,0006.03,0014.09,0005.12
2024-04-09 21:28:00,SystemResetWarning,0825.8,5.01,000.00,024.9,024.3,000.0,033.2,026.7,012.1,0000.0,0005.99,0013.90,0005.11
2024-04-09 21:29:00,SystemResetWarning,0825.8,4.99,000.00,024.9,024.3,000.0,033.2,026.7,012.0,0000.0,0005.98,0014.18,0005.11
2024-04-09 21:30:00,SystemResetWarning,0825.8,5.00,000.00,024.9,024.3,000.0,033.2,026.7,011.6,0000.0,0005.96,0014.26,0005.12
2024-04-09 21:31:00,SystemResetWarning,0825.8,5.00,000.00,025.0,024.3,000.0,033.2,026.8,011.7,0000.0,0005.97,0014.03,0005.14
2024-04-09 21:32:00,SystemResetWarning,0825.8,4.99,000.00,025.0,024.3,000.0,033.2,026.7,011.6,0000.0,0005.99,0013.63,0005.16
2024-04-09 21:33:00,SystemResetWarning,0825.7,5.00,000.00,025.0,024.3,000.0,033.2,026.7,011.8,0005.0,0005.99,0013.57,0005.19
2024-04-09 21:34:00,SystemResetWarning,0825.8,5.01,000.00,025.0,024.3,000.0,033.2,026.7,011.7,0005.2,0006.02,0013.67,0005.23
2024-04-09 21:35:00,SystemResetWarning,0825.7,5.00,000.00,025.0,024.3,000.0,033.3,026.8,011.7,0005.0,0006.05,0014.10,0005.26
2024-04-09 21:36:00,SystemResetWarning,0825.7,5.00,000.00,025.0,024.3,000.0,033.3,026.8,011.6,0005.9,0006.07,0015.47,0005.28
2024-04-09 21:37:00,SystemResetWarning,0825.8,4.99,000.00,025.0,024.4,000.0,033.3,026.8,011.5,0005.8,0006.11,0017.13,0005.30
2024-04-09 21:38:00,SystemResetWarning,0825.7,4.99,000.00,025.0,024.4,000.0,033.3,026.8,011.4,0005.9,0006.16,0017.70,0005.34
2024-04-09 21:39:00,SystemResetWarning,0825.7,5.00,000.00,025.0,024.4,000.0,033.3,026.8,011.5,0003.3,0006.26,0018.11,0005.38
2024-04-09 21:40:00,SystemResetWarning,0825.7,5.01,000.00,025.0,024.4,000.0,033.3,026.8,011.3,0002.4,0006.37,0018.64,0005.40
2024-04-09 21:41:00,SystemResetWarning,0825.7,5.01,000.00,025.0,024.4,000.0,033.3,026.8,011.3,0000.0,0006.35,0018.39,0005.42
2024-04-09 21:42:00,SystemResetWarning,0825.6,5.00,000.00,025.1,024.4,000.0,033.3,026.9,011.4,0000.0,0006.33,0019.04,0005.42
2024-04-09 21:43:00,SystemResetWarning,0825.7,4.99,000.00,025.1,024.5,000.0,033.4,026.9,011.4,0000.0,0006.31,0018.84,0005.40
2024-04-09 21:44:00,SystemResetWarning,0825.7,4.99,000.00,025.1,024.5,000.0,033.4,026.9,011.2,0000.0,0006.28,0018.26,0005.36
2024-04-09 21:45:00,SystemResetWarning,0825.7,5.00,000.00,025.1,024.5,000.0,033.4,026.9,011.2,0005.8,0006.22,0018.91,0005.34
2024-04-09 21:46:00,SystemResetWarning,0825.6,5.00,000.00,025.1,024.5,000.0,033.4,027.0,011.5,0001.4,0006.15,0018.62,0005.30
2024-04-09 21:47:00,SystemResetWarning,0825.7,5.01,000.00,025.2,024.6,000.0,033.4,027.0,011.5,0006.6,0006.15,0017.39,0005.27
2024-04-09 21:48:00,SystemResetWarning,0825.7,5.00,000.00,025.2,024.6,000.0,033.4,027.0,011.5,0006.9,0006.04,0015.16,0005.24
2024-04-09 21:49:00,SystemResetWarning,0825.7,5.00,000.00,025.2,024.6,000.0,033.5,027.0,011.4,0006.4,0006.00,0015.01,0005.22
2024-04-09 21:50:00,SystemResetWarning,0825.6,4.98,000.00,025.2,024.6,000.0,033.5,027.1,011.4,0006.5,0005.93,0014.82,0005.19
2024-04-09 21:51:00,SystemResetWarning,0825.7,5.01,000.00,025.2,024.7,000.0,033.5,027.1,011.4,0006.4,0005.84,0013.90,0005.18
2024-04-09 21:52:00,SystemResetWarning,0825.7,5.00,000.00,025.3,024.7,000.0,033.5,027.1,011.5,0006.4,0005.85,0013.89,0005.16
2024-04-09 21:53:00,SystemResetWarning,0825.6,5.00,000.00,025.3,024.7,000.0,033.5,027.1,011.8,0005.9,0005.87,0014.51,0005.12
2024-04-09 21:54:00,SystemResetWarning,0825.6,5.00,000.00,025.3,024.7,000.0,033.5,027.1,011.7,0006.0,0005.88,0014.62,0005.11
2024-04-09 21:55:00,SystemResetWarning,0825.7,5.00,000.00,025.3,024.7,000.0,033.6,027.1,011.2,0006.1,0005.89,0014.87,0005.11
2024-04-09 21:56:00,SystemResetWarning,0825.7,5.00,000.00,025.3,024.8,000.0,033.6,027.2,011.2,0006.6,0005.92,0014.56,0005.12
2024-04-09 21:57:00,SystemResetWarning,0825.6,5.00,000.00,025.3,024.8,000.0,033.6,027.2,011.3,0006.5,0005.96,0013.70,0005.13
2024-04-09 21:58:00,SystemResetWarning,0825.6,5.00,000.00,025.4,024.8,000.0,033.6,027.2,011.3,0006.2,0005.98,0013.41,0005.15
2024-04-09 21:59:00,SystemResetWarning,0825.6,4.99,000.00,025.4,024.8,000.0,033.6,027.2,011.4,0006.1,0006.01,0014.38,0005.17
